User: anonymous   Login
Location: Unspecified
(0.0000°N, 0.0000°E)
Time: 03:00:40
(UTC+00:00)
Language:

STARLINK-4472 - Orbit

View from above orbital plane
View from above orbital plane
View from above satellite
View from above satellite

Ground track
Ground track

The orbit is defined by the following mean orbital elements,

1 53661U          26145.23919859 +.00000000 +00000-0 -47347-4 0 00008
2 53661  97.4484  25.1562 0001958  78.4390 281.7057 15.05651206    05
Epoch (UTC): 25 May 2026 05:44:26
Eccentricity: 0.0001958
inclination: 97.4484°
perigee height: 548 km
apogee height: 551 km
right ascension of ascending node: 25.1562°
argument of perigee: 78.4390°
revolutions per day: 15.05651206
mean anomaly at epoch: 281.7057°

The dashed part of the orbit path shows where the satellite is in the earth's shadow,  

DLR